Regional Weather Roundup
Issued by NWS

Home | Current Version | Previous Version | Graphics & Text | Print | Product List | Glossary On
Versions: 1 2 3 4 5 6 7 8 9 10 11 12 13 14 15 16 17 18 19 20 21 22 23 24 25 26 27 28 29 30 31 32 33 34 35 36 37 38 39 40 41 42 43 44 45 46 47 48 49 50
000
ASUS44 KMEG 241810
RWRTN
TENNESSEE HOURLY STATE WEATHER ROUNDUP
NATIONAL WEATHER SERVICE MEMPHIS TN
100 PM CDT FRI APR 24 2015

TNZ002-004-019-021-049-052-054-088>092-241900-
WEST TENNESSEE

CITY           SKY/WX    TMP DP  RH WIND       PRES   REMARKS
MEMPHIS INTL   CLOUDY    66  40  38 SE9       29.98F
NWS MEMPHIS      N/A     66 N/A N/A MISG        N/A
JACKSON        CLOUDY    66  40  38 SE8       30.00F
DYERSBURG      CLOUDY    61  36  39 N5        30.03R
UNION CITY     PTSUNNY   61  32  33 E6        30.01S
PARIS          SUNNY     63  32  31 SE8       30.02F
LEXINGTON      SUNNY     66  28  24 SE6       30.01F
SAVANNAH       SUNNY     70  32  24 S7        30.01F
$$

TNZ008-025-027-028-033-062-065-066-241900-
NORTH MIDDLE TENNESSEE

CITY           SKY/WX    TMP DP  RH WIND       PRES   REMARKS
NASHVILLE      CLOUDY    65  23  20 VRB6      30.06F
CLARKSVILLE    PTSUNNY   64  30  27 SE7       30.04F
SMYRNA         CLOUDY    66  25  21 CALM      30.07F
COOKEVILLE     SUNNY     64  28  25 S3        30.05F
CROSSVILLE     PTSUNNY   62  20  19 CALM      30.07F
$$

TNZ061-075-076-078-094-096-097-241900-
SOUTH MIDDLE TENNESSEE

CITY           SKY/WX    TMP DP  RH WIND       PRES   REMARKS
FAYETTEVILLE   SUNNY     66  32  28 NE7       30.04F
TULLAHOMA      SUNNY     64  27  24 CALM      30.06F
WINCHESTER     SUNNY     66  28  24 NE3       30.05F
MCMINNVILLE    SUNNY     64  28  25 NE6       30.06F
COLUMBIA       SUNNY     64  32  29 NE5       30.03F
SHELBYVILLE    SUNNY     64  34  32 VRB3      30.07F
$$

TNZ017-018-042-046-047-241900-
NORTHEAST TENNESSEE

CITY           SKY/WX    TMP DP  RH WIND       PRES   REMARKS
TRI CITIES     SUNNY     59  26  28 VRB6      30.09F
ELIZABETHTON   CLEAR     57  27  30 SW10      30.08F
$$

TNZ012-013-036-069-073-074-241900-
CENTRAL EAST TENNESSEE

CITY           SKY/WX    TMP DP  RH WIND       PRES   REMARKS
KNOXVILLE      PTSUNNY   64  25  22 NE6       30.06F
OAK RIDGE      SUNNY     65  26  23 VRB3      30.08F
GATLINBURG     CLEAR     61  25  25 N6        30.07F
MORRISTOWN     CLEAR     61  27  27 N3        30.09F
$$

TNZ083-085-099-241900-
SOUTHEAST TENNESSEE

CITY           SKY/WX    TMP DP  RH WIND       PRES   REMARKS
CHATTANOOGA    PTSUNNY   64  30  27 NW5       30.06F
$$

SKY/WX REPORTED AS FAIR MEANS FEW OR NO CLOUDS BELOW
12 THOUSAND FEET.



USA.gov is the U.S. government's official web portal to all federal, state and local government web resources and services.